Weather observations for the past three days for
Bridgeport, Sikorsky Memorial Airport
Imperial (Metric)
Date Time (edt) Wind (mph) Vis. (mi.) Weather Sky Cond. Temperature (ºF) Relative Humidity Wind Chill (°F) Heat Index (°F) Pressure Precipitation (in)
Air Dwpt 6 hour altimeter (in) sea level (mb) 1 hr 3 hr 6 hr
Max. Min.
22 21:52 E 7 10.00 Fair CLR 73 69.1 87% 29.96 1014.5
22 20:52 E 6 10.00 Fair CLR 73 69.1 87% 29.96 1014.5
22 19:52 E 12 10.00 Thunderstorm in Vicinity SCT048 BKN060 BKN090 79 66.9 87.1 75.9 67% 81 29.96 1014.3
22 18:52 E 9 10.00 Thunderstorm in Vicinity BKN047 77 68 74% 79 29.95 1014.2
22 17:52 NE 14 10.00 A Few Clouds FEW110 81 70 69% 84 29.95 1014.2
22 16:52 SE 7 10.00 Fair CLR 84 73 70% 90 29.92 1013.0
22 15:52 S 6 7.00 Fair CLR 84.9 73 68% 92 29.92 1013.2
22 14:52 S 7 10.00 Fair CLR 86 71.1 61% 92 29.95 1014.1
22 13:52 S 5 5.00 Fair with Haze CLR 84 72 84 75 67% 90 29.97 1014.9
22 12:52 SW 5 10.00 Fair CLR 82 71.1 69% 86 29.99 1015.5
22 11:52 S 8 5.00 Fair with Haze CLR 80.1 71.1 74% 84 30.01 1016.3
22 10:52 SE 7 10.00 Fair CLR 77 71.1 82% 79 30.02 1016.5
22 09:52 S 5 10.00 Fair CLR 77 72 85% 78 30.04 1017.2
22 08:52 SW 6 5.00 Mostly Cloudy with Haze FEW008 BKN120 75.9 71.1 85% 76 30.04 1017.2
22 07:52 Vrbl 3 5.00 Fog/Mist OVC006 75 71.1 75 72 88% 75 30.05 1017.6
22 06:52 W 3 10.00 Overcast OVC006 73 70 90% 30.05 1017.7
22 05:52 SE 3 10.00 Overcast OVC007 73 71.1 94% 30.05 1017.5
22 04:52 Calm 10.00 Overcast OVC008 73 70 90% 30.05 1017.5
22 03:52 Calm 10.00 Overcast OVC008 72 71.1 97% 30.06 1017.8
22 02:52 Calm 10.00 A Few Clouds FEW100 72 71.1 97% 30.06 1018.0
22 01:52 NE 5 10.00 Partly Cloudy SCT010 72 70 75 72 94% 30.07 1018.1 0.13
22 00:52 Calm 10.00 Mostly Cloudy FEW010 SCT065 BKN080 73 71.1 94% 30.1 1019.4
21 23:52 E 6 10.00 Partly Cloudy SCT085 73 71.1 94% 30.09 1019.1
21 22:52 NE 8 10.00 Partly Cloudy SCT080 73 70 90% 30.11 1019.6 0.13
21 21:52 Calm 10.00 A Few Clouds FEW110 73 71.1 94% 30.12 1019.8
21 20:52 E 9 5.00 Light Rain Fog/Mist FEW100 SCT120 73 71.1 94% 30.1 1019.1 0.13
21 19:52 E 9 3.00 Thunderstorm Heavy Rain Fog/Mist BKN025 BKN065 OVC100 75 72 91 75 90% 74 30.13 1020.1 0.34 0.35
21 18:52 N 8 10.00 Light Rain SCT065 BKN080 OVC100 77 72 85% 78 30.12 1019.8 0.01
21 17:52 SW 7 10.00 A Few Clouds FEW065 84.9 70 61% 89 30.08 1018.7
21 16:52 S 6 10.00 Fair CLR 86 72 63% 92 30.06 1018.0
21 15:52 SE 8 10.00 Fair CLR 88 70 55% 93 30.08 1018.5
21 14:52 Calm 10.00 Fair CLR 89.1 69.1 52% 94 30.1 1019.1
21 13:52 S 6 10.00 Fair CLR 88 66.9 89.1 77 50% 91 30.12 1019.8
21 12:52 S 7 10.00 Fair CLR 86 68 55% 89 30.14 1020.6
21 11:52 SW 9 10.00 Fair CLR 82.9 68 61% 86 30.16 1021.3
21 10:52 SW 9 10.00 Fair CLR 81 66.9 62% 83 30.16 1021.2
21 09:52 SW 8 10.00 Fair CLR 79 66.9 67% 81 30.17 1021.5
21 08:52 SW 6 10.00 Fair CLR 78.1 66.9 69% 80 30.17 1021.6
21 07:52 W 5 10.00 Fair CLR 77 68 77 70 74% 79 30.18 1022.0
21 06:52 Calm 10.00 Mostly Cloudy BKN090 73 68 84% 30.18 1021.9
21 05:52 Calm 10.00 Mostly Cloudy BKN090 73 68 84% 30.18 1021.9
21 04:52 W 3 10.00 A Few Clouds FEW085 72 68 87% 30.18 1022.0
21 03:52 W 3 10.00 Fair CLR 71.1 66.9 87% 30.18 1022.0
21 02:52 SW 5 10.00 Fair CLR 72 66.9 84% 30.18 1022.0
21 01:52 Calm 10.00 Fair CLR 72 66 79 71.1 82% 30.2 1022.6
21 00:52 Calm 10.00 Partly Cloudy SCT060 72 64.9 79% 30.21 1022.9
20 23:52 SE 3 10.00 A Few Clouds FEW065 71.1 64.9 81% 30.23 1023.5
20 22:52 S 6 10.00 Fair CLR 75 66 74% 76 30.22 1023.4
20 21:52 S 5 10.00 Fair CLR 75 66 74% 76 30.23 1023.6
20 20:52 S 10 10.00 Fair CLR 77 66.9 71% 79 30.21 1022.8
20 19:52 SW 6 10.00 Fair CLR 79 69.1 90 79 72% 82 30.2 1022.5
20 18:52 SW 12 10.00 Fair CLR 82 68 63% 85 30.2 1022.5
20 17:52 SW 15 10.00 Fair CLR 84 70 63% 88 30.2 1022.7
20 16:52 SW 13 10.00 Fair CLR 87.1 70 57% 92 30.21 1023.1
20 15:52 S 13 10.00 Fair CLR 89.1 70 53% 94 30.22 1023.5
20 14:52 S 10 10.00 Fair CLR 87.1 69.1 55% 91 30.25 1024.3
20 13:52 SW 9 10.00 Fair CLR 86 69.1 87.1 73 57% 90 30.27 1024.8
20 12:52 SW 10 10.00 Fair CLR 84 68 59% 87 30.28 1025.5
20 11:52 SW 7 10.00 Fair CLR 82.9 66.9 59% 86 30.3 1026.0
20 10:52 SW 9 10.00 Fair CLR 80.1 66.9 64% 82 30.3 1026.1
20 09:52 SW 12 10.00 Fair CLR 75.9 64.9 69% 78 30.3 1026.1
20 08:52 SW 10 10.00 Fair CLR 73.9 64.9 74% 30.3 1026.0
20 07:52 SW 8 10.00 Fair CLR 73 64.9 73 69.1 76% 30.3 1026.0
20 06:52 W 7 10.00 Fair CLR 72 66 82% 30.3 1025.9
20 05:52 SW 5 10.00 Fair CLR 70 66 87% 30.3 1025.9
20 04:52 SW 3 10.00 Fair CLR 70 66 87% 30.28 1025.5
20 03:52 SW 5 10.00 Fair CLR 71.1 66 84% 30.29 1025.8
20 02:52 SW 5 10.00 Fair CLR 71.1 64.9 81% 30.29 1025.8
20 01:52 SW 3 10.00 Fair CLR 70 66 77 70 87% 30.3 1025.9
20 00:52 SW 7 10.00 Fair CLR 72 66 82% 30.31 1026.2
19 23:52 SW 8 10.00 Fair CLR 73 64.9 76% 30.32 1026.5
19 22:52 SW 7 10.00 Fair CLR 73 66 79% 30.33 1027.0
Date Time (edt) Wind (mph) Vis. (mi.) Weather Sky Cond. Air Dwpt Max. Min. Relative Humidity Wind Chill (°F) Heat Index (°F) altimeter (in) sea level (mb) 1 hr 3 hr 6 hr
6 hour
Temperature (ºF) Pressure Precipitation (in)